HB9HFD-13 Weather Reports


Display with metric or nautical units.
time (UTC)temp
F
wind
direction
speed
MPH
gust
MPH
rain 1hr
in
rain 24hr
in
rain mn
in
humidity
%
barometer
mb
20260507192246 57 148 0.0 0.0 0.00 0.13 0.01 69 1011.2
20260507191745 57 148 0.0 0.0 0.00 0.13 0.01 68 1011.2
20260507191245 57 148 0.0 2.0 0.00 0.13 0.01 68 1011.1
20260507190745 57 296 0.0 0.0 0.00 0.13 0.01 67 1011.0
20260507190244 58 296 0.0 0.0 0.00 0.13 0.01 67 1010.9
20260507185744 58 296 0.0 1.0 0.00 0.13 0.01 66 1011.0
20260507185244 58 296 0.0 0.0 0.00 0.13 0.01 66 1010.9
20260507184744 59 296 0.0 0.0 0.00 0.13 0.01 65 1010.9
20260507184243 59 296 0.0 2.0 0.00 0.13 0.01 65 1010.9
20260507183743 59 301 0.0 2.0 0.00 0.13 0.01 64 1010.8
20260507183243 60 307 0.0 1.0 0.00 0.13 0.01 62 1010.9
20260507182743 60 288 0.0 1.0 0.00 0.13 0.01 63 1010.8
20260507182242 61 288 0.0 2.0 0.00 0.13 0.01 61 1010.9
20260507181742 61 310 0.0 0.0 0.00 0.13 0.01 60 1010.7
20260507181242 62 146 0.0 0.0 0.00 0.13 0.01 59 1010.8
20260507180742 62 146 0.0 1.0 0.00 0.13 0.01 58 1010.6
20260507180241 62 221 0.0 1.0 0.00 0.13 0.01 57 1010.6
20260507175741 62 127 0.0 1.0 0.00 0.13 0.01 56 1010.5
20260507175241 62 130 0.0 1.0 0.00 0.13 0.01 55 1010.5
20260507174740 62 130 0.0 2.0 0.00 0.13 0.01 56 1010.6
20260507174240 63 127 0.0 2.0 0.00 0.13 0.01 55 1010.6
20260507173740 63 129 0.0 1.0 0.00 0.13 0.01 55 1010.7
20260507173240 63 130 0.0 1.0 0.00 0.13 0.01 54 1010.6
20260507172740 64 123 0.0 3.0 0.00 0.13 0.01 54 1010.6
20260507172239 64 129 0.0 2.0 0.00 0.13 0.01 54 1010.5
20260507171739 64 146 0.0 3.0 0.00 0.13 0.01 54 1010.5
20260507171239 65 138 0.0 2.0 0.00 0.13 0.01 53 1010.5
20260507170738 66 146 0.0 2.0 0.00 0.13 0.01 52 1010.5
20260507170238 66 134 0.0 1.0 0.00 0.13 0.01 52 1010.5
20260507165738 67 122 0.0 2.0 0.00 0.13 0.01 50 1010.6
20260507165238 67 193 0.0 1.0 0.00 0.13 0.01 50 1010.5
20260507164737 68 137 0.0 2.0 0.00 0.13 0.01 47 1010.5
20260507164237 69 121 1.0 3.0 0.00 0.13 0.01 48 1010.5
20260507163737 69 148 0.0 2.0 0.00 0.13 0.01 46 1010.6
20260507163236 70 143 0.0 1.0 0.00 0.13 0.01 47 1010.6
20260507162736 69 113 0.0 1.0 0.00 0.13 0.01 47 1010.6
20260507162236 69 162 0.0 2.0 0.00 0.13 0.01 48 1010.6
20260507161736 69 127 0.0 4.0 0.00 0.13 0.01 46 1010.6
20260507161235 69 159 0.0 4.0 0.00 0.13 0.01 46 1010.6
20260507160735 68 153 0.0 4.0 0.00 0.13 0.01 47 1010.7
20260507160235 68 110 0.0 4.0 0.00 0.13 0.01 48 1010.6
20260507155735 68 143 0.0 1.0 0.00 0.13 0.01 48 1010.8
20260507155234 67 147 0.0 2.0 0.00 0.13 0.01 50 1010.6
20260507154734 66 129 1.0 3.0 0.00 0.13 0.01 50 1010.7
20260507154234 67 130 1.0 3.0 0.00 0.13 0.01 48 1010.6
20260507153734 68 154 1.0 3.0 0.00 0.13 0.01 46 1010.6
20260507153233 69 150 0.0 4.0 0.00 0.13 0.01 45 1010.6
20260507152733 69 206 0.0 2.0 0.00 0.13 0.01 46 1010.6
20260507152233 69 160 0.0 2.0 0.00 0.13 0.01 47 1010.6
20260507151732 69 161 1.0 2.0 0.00 0.13 0.01 47 1010.6
20260507151232 69 216 1.0 4.0 0.00 0.13 0.01 46 1010.6
20260507150732 69 141 0.0 2.0 0.00 0.13 0.01 47 1010.6
20260507150232 68 134 1.0 3.0 0.00 0.13 0.01 49 1010.6
20260507145731 68 176 1.0 3.0 0.00 0.13 0.01 47 1010.8
20260507145231 68 160 1.0 5.0 0.00 0.13 0.01 46 1010.9
20260507144731 68 148 0.0 2.0 0.00 0.13 0.01 46 1010.8
20260507144231 68 199 1.0 2.0 0.00 0.13 0.01 45 1010.8
20260507143730 68 152 0.0 3.0 0.00 0.13 0.01 45 1010.8
20260507143230 70 154 0.0 3.0 0.00 0.13 0.01 46 1010.8
20260507142730 70 139 0.0 2.0 0.00 0.13 0.01 45 1010.8
20260507142229 70 148 0.0 2.0 0.00 0.13 0.01 47 1010.8
20260507141729 69 147 1.0 3.0 0.00 0.13 0.01 47 1010.8
20260507141229 69 156 0.0 2.0 0.00 0.13 0.01 47 1011.0
20260507140729 69 134 0.0 2.0 0.00 0.13 0.01 48 1011.1
20260507140229 69 136 0.0 1.0 0.00 0.13 0.01 48 1011.1
20260507135728 68 121 0.0 2.0 0.00 0.13 0.01 50 1011.0
20260507135228 67 295 1.0 4.0 0.00 0.13 0.01 51 1011.1
20260507134728 66 127 0.0 4.0 0.00 0.13 0.01 51 1011.1
20260507134227 66 142 0.0 2.0 0.00 0.13 0.01 50 1011.1
20260507133727 67 155 1.0 3.0 0.00 0.13 0.01 50 1011.2
20260507133227 66 160 0.0 4.0 0.00 0.13 0.01 48 1011.1
20260507132727 66 134 0.0 2.0 0.00 0.13 0.01 50 1011.3
20260507132226 67 147 0.0 3.0 0.00 0.13 0.01 50 1011.3
20260507131726 67 158 0.0 3.0 0.00 0.13 0.01 52 1011.3
20260507131226 67 127 0.0 1.0 0.00 0.13 0.01 53 1011.4
20260507130725 66 95 1.0 3.0 0.00 0.13 0.01 52 1011.5
20260507130225 67 144 1.0 3.0 0.00 0.13 0.01 49 1011.4
20260507125725 68 158 1.0 3.0 0.00 0.13 0.01 50 1011.5
20260507125225 68 144 1.0 3.0 0.00 0.13 0.01 53 1011.4
20260507124724 67 134 1.0 2.0 0.00 0.13 0.01 56 1011.4
20260507124224 66 139 1.0 3.0 0.00 0.13 0.01 54 1011.5
20260507123724 65 139 1.0 4.0 0.00 0.13 0.01 55 1011.5
20260507123224 65 165 0.0 2.0 0.00 0.13 0.01 59 1011.5
20260507122723 64 150 0.0 2.0 0.00 0.13 0.01 60 1011.5
20260507122223 63 144 1.0 4.0 0.00 0.13 0.01 62 1011.5
20260507121723 62 203 1.0 3.0 0.00 0.13 0.01 61 1011.5
20260507121223 62 116 1.0 4.0 0.00 0.13 0.01 61 1011.6
20260507120722 64 139 0.0 3.0 0.00 0.13 0.01 60 1011.7
20260507120222 65 141 0.0 2.0 0.00 0.13 0.01 59 1011.5
20260507115722 66 150 0.0 1.0 0.00 0.14 0.01 59 1011.6
20260507115221 66 157 0.0 2.0 0.00 0.14 0.01 59 1011.6
20260507114721 66 124 1.0 3.0 0.00 0.14 0.01 61 1011.6
20260507114221 66 135 1.0 3.0 0.00 0.14 0.01 62 1011.5
20260507113721 65 132 1.0 2.0 0.00 0.14 0.01 61 1011.6
20260507113220 65 150 1.0 4.0 0.00 0.14 0.01 57 1011.7
20260507112720 66 136 0.0 3.0 0.00 0.14 0.01 60 1011.8
20260507112220 66 152 1.0 2.0 0.00 0.14 0.01 62 1011.7
20260507111720 65 158 1.0 5.0 0.00 0.14 0.01 61 1011.8
20260507111219 65 149 1.0 5.0 0.00 0.14 0.01 62 1011.8
20260507110719 65 136 0.0 4.0 0.00 0.14 0.01 57 1011.8
20260507110219 65 162 0.0 1.0 0.00 0.14 0.01 61 1011.8
20260507105719 64 146 0.0 2.0 0.00 0.15 0.01 53 1011.7
20260507105218 64 160 1.0 1.0 0.00 0.15 0.01 58 1011.7
20260507104718 63 295 1.0 4.0 0.00 0.15 0.01 60 1011.8
20260507104218 64 148 1.0 2.0 0.00 0.15 0.01 59 1011.9
20260507103717 63 322 1.0 5.0 0.00 0.15 0.01 62 1011.9
20260507103217 63 306 1.0 4.0 0.00 0.15 0.01 60 1012.0
20260507102717 64 263 0.0 6.0 0.00 0.15 0.01 59 1011.9
20260507102217 65 120 0.0 1.0 0.00 0.15 0.01 59 1012.0
20260507101716 65 120 0.0 1.0 0.00 0.15 0.01 60 1012.0
20260507101216 64 120 0.0 2.0 0.00 0.15 0.01 60 1012.0
20260507100716 63 123 0.0 2.0 0.00 0.15 0.01 60 1012.0
20260507100216 63 132 0.0 1.0 0.00 0.15 0.01 65 1012.0
20260507095715 63 124 0.0 4.0 0.00 0.19 0.01 58 1012.0
20260507095215 64 172 0.0 2.0 0.00 0.19 0.01 63 1012.1
20260507094715 63 176 0.0 2.0 0.00 0.19 0.01 69 1012.0
20260507094214 62 158 0.0 2.0 0.00 0.19 0.01 73 1012.0
20260507093714 61 156 0.0 3.0 0.00 0.19 0.01 69 1012.1
20260507093214 61 178 1.0 3.0 0.00 0.19 0.01 68 1012.0
20260507092714 61 134 1.0 3.0 0.00 0.19 0.01 68 1012.1
20260507092213 61 124 0.0 2.0 0.00 0.19 0.01 67 1012.0
20260507091713 60 139 0.0 1.0 0.00 0.19 0.01 71 1012.1
20260507091213 60 136 0.0 2.0 0.00 0.19 0.01 68 1012.1
20260507090713 60 140 0.0 3.0 0.00 0.19 0.01 72 1012.1
20260507090212 59 122 0.0 1.0 0.00 0.19 0.01 71 1012.0
20260507085712 59 142 0.0 3.0 0.00 0.30 0.01 71 1012.0
20260507085212 59 153 0.0 2.0 0.00 0.30 0.01 74 1012.0
20260507084712 58 125 0.0 2.0 0.00 0.30 0.01 72 1012.0
20260507084211 58 141 0.0 2.0 0.00 0.30 0.01 72 1012.0
20260507083711 59 143 1.0 3.0 0.00 0.30 0.01 72 1011.9
20260507083211 58 135 0.0 2.0 0.00 0.30 0.01 75 1012.1
20260507082710 58 137 0.0 2.0 0.00 0.30 0.01 69 1012.0
20260507082210 58 170 0.0 1.0 0.00 0.30 0.01 77 1012.1
20260507081710 57 127 0.0 1.0 0.00 0.30 0.01 76 1012.0
20260507081210 56 127 0.0 3.0 0.00 0.30 0.01 77 1012.0
20260507080709 55 163 0.0 1.0 0.00 0.30 0.01 80 1012.1
20260507080209 55 131 0.0 3.0 0.00 0.30 0.01 78 1012.2
20260507075709 55 131 0.0 2.0 0.00 0.46 0.01 80 1012.1
20260507075209 54 162 0.0 1.0 0.00 0.46 0.01 84 1012.0
20260507074708 53 108 0.0 2.0 0.00 0.46 0.01 85 1012.1
20260507074208 52 125 0.0 3.0 0.00 0.46 0.01 84 1012.0
20260507073708 52 164 0.0 1.0 0.00 0.46 0.01 86 1012.0
20260507073208 52 148 0.0 1.0 0.00 0.46 0.01 86 1012.0
20260507072707 51 150 1.0 4.0 0.00 0.46 0.01 84 1012.0
20260507072207 52 131 0.0 4.0 0.00 0.46 0.01 84 1012.0
20260507071707 52 116 0.0 2.0 0.00 0.46 0.01 85 1012.0
20260507071206 52 144 0.0 1.0 0.00 0.46 0.01 86 1012.0
20260507070706 52 141 0.0 1.0 0.00 0.46 0.01 87 1011.9
20260507070206 51 118 0.0 2.0 0.00 0.46 0.01 87 1011.9
20260507065706 51 319 0.0 0.0 0.00 0.63 0.01 87 1011.9
20260507065205 51 189 0.0 0.0 0.00 0.63 0.01 88 1011.9
20260507064705 50 180 0.0 1.0 0.00 0.63 0.01 88 1011.9
20260507064205 50 309 0.0 3.0 0.00 0.63 0.01 87 1011.9
20260507063705 50 309 0.0 3.0 0.00 0.63 0.01 87 1012.0
20260507063204 50 314 0.0 0.0 0.00 0.63 0.01 88 1011.9
20260507062704 49 314 0.0 0.0 0.00 0.63 0.01 90 1011.9
20260507062204 49 314 0.0 0.0 0.00 0.63 0.01 89 1011.8
20260507061704 49 314 0.0 1.0 0.00 0.63 0.01 88 1011.8
20260507061203 49 314 0.0 0.0 0.00 0.63 0.01 89 1011.9
20260507060703 49 314 0.0 0.0 0.00 0.63 0.01 90 1011.8
20260507060203 49 314 0.0 0.0 0.00 0.63 0.01 90 1011.8
20260507055702 49 314 0.0 0.0 0.00 0.71 0.01 91 1011.8
20260507055202 48 314 0.0 0.0 0.00 0.71 0.01 92 1011.8
20260507054702 48 314 0.0 0.0 0.00 0.71 0.01 92 1011.7
20260507054202 48 314 0.0 0.0 0.00 0.71 0.01 92 1011.6
20260507053701 48 314 0.0 0.0 0.00 0.71 0.01 93 1011.6
20260507053201 48 314 0.0 0.0 0.00 0.71 0.01 93 1011.6
20260507052701 47 314 0.0 0.0 0.00 0.71 0.01 93 1011.5
20260507052201 47 314 0.0 0.0 0.00 0.71 0.01 93 1011.5
20260507051700 47 314 0.0 0.0 0.00 0.71 0.01 93 1011.4
20260507051200 47 314 0.0 0.0 0.00 0.71 0.01 93 1011.4
20260507050700 47 314 0.0 0.0 0.00 0.71 0.01 93 1011.4
20260507050200 47 314 0.0 0.0 0.00 0.71 0.01 93 1011.3
20260507045659 47 314 0.0 0.0 0.00 0.73 0.01 92 1011.4
20260507045159 46 314 0.0 0.0 0.00 0.73 0.01 92 1011.3
20260507044659 46 314 0.0 0.0 0.00 0.73 0.01 92 1011.3
20260507044158 46 314 0.0 0.0 0.00 0.73 0.01 92 1011.3
20260507043658 46 314 0.0 0.0 0.00 0.73 0.01 92 1011.2
20260507043158 46 314 0.0 0.0 0.00 0.73 0.01 92 1011.2
20260507042658 47 314 0.0 0.0 0.00 0.73 0.01 92 1011.2
20260507042157 46 314 0.0 0.0 0.00 0.73 0.01 92 1011.1
20260507041657 46 314 0.0 0.0 0.00 0.73 0.01 92 1011.2
20260507041157 46 314 0.0 0.0 0.00 0.73 0.01 91 1011.1
20260507040657 46 313 0.0 0.0 0.00 0.73 0.01 92 1011.1
20260507040156 46 314 0.0 0.0 0.00 0.73 0.01 92 1011.1
20260507035656 46 313 0.0 0.0 0.00 0.73 0.01 92 1011.1
20260507035156 46 313 0.0 0.0 0.00 0.73 0.01 92 1011.0
20260507034656 46 314 0.0 0.0 0.00 0.73 0.01 92 1011.0
20260507034155 46 314 0.0 0.0 0.00 0.73 0.01 93 1011.0
20260507033655 46 313 0.0 0.0 0.00 0.73 0.01 93 1011.0
20260507033155 46 313 0.0 0.0 0.00 0.73 0.01 93 1011.0
20260507032654 46 313 0.0 0.0 0.00 0.73 0.01 93 1011.0
20260507032154 46 313 0.0 0.0 0.00 0.73 0.01 93 1011.0
20260507031654 46 313 0.0 0.0 0.00 0.73 0.01 93 1010.9
20260507031154 46 313 0.0 0.0 0.00 0.73 0.01 92 1011.0
20260507030653 46 313 0.0 0.0 0.00 0.73 0.01 92 1010.9
20260507030153 46 313 0.0 0.0 0.00 0.73 0.01 92 1010.9
20260507025653 46 313 0.0 0.0 0.00 0.73 0.01 92 1011.0
20260507025153 46 313 0.0 0.0 0.00 0.73 0.01 92 1010.9
20260507024652 46 313 0.0 0.0 0.00 0.73 0.01 92 1010.9
20260507024152 46 313 0.0 0.0 0.00 0.73 0.01 92 1010.9
20260507023652 46 313 0.0 2.0 0.00 0.73 0.01 92 1010.9
20260507023151 46 302 0.0 2.0 0.00 0.73 0.01 92 1011.0
20260507022651 46 302 0.0 2.0 0.00 0.73 0.01 92 1010.9
20260507022151 46 308 0.0 1.0 0.00 0.73 0.01 93 1011.0
20260507021651 46 308 0.0 1.0 0.00 0.73 0.01 92 1010.9
20260507021150 46 321 0.0 0.0 0.00 0.73 0.01 92 1010.9
20260507020650 46 321 0.0 0.0 0.00 0.73 0.01 92 1010.9
20260507020150 46 321 0.0 0.0 0.00 0.73 0.01 92 1010.8
20260507015650 46 321 0.0 0.0 0.00 0.74 0.01 92 1010.9
20260507015149 46 321 0.0 0.0 0.00 0.74 0.01 92 1010.8
20260507014649 46 321 0.0 1.0 0.00 0.74 0.01 92 1010.9
20260507014149 46 321 0.0 1.0 0.00 0.74 0.01 93 1010.7
20260507013649 45 303 0.0 1.0 0.00 0.74 0.01 93 1010.6
20260507013148 45 303 0.0 1.0 0.00 0.74 0.01 94 1010.6
20260507012648 45 303 0.0 0.0 0.00 0.74 0.01 94 1010.5
20260507012148 46 303 0.0 0.0 0.00 0.74 0.01 94 1010.5
20260507011647 46 303 0.0 0.0 0.00 0.74 0.01 94 1010.6
20260507011147 46 303 0.0 0.0 0.00 0.74 0.01 94 1010.6
20260507010647 46 303 0.0 0.0 0.00 0.74 0.01 94 1010.6
20260507010147 46 303 0.0 0.0 0.00 0.74 0.01 94 1010.6
20260507005646 46 303 0.0 0.0 0.00 0.74 0.01 93 1010.5
20260507005146 46 303 0.0 0.0 0.00 0.74 0.01 93 1010.5
20260507004646 46 303 0.0 0.0 0.00 0.74 0.01 93 1010.7
20260507004146 46 303 0.0 0.0 0.00 0.74 0.01 93 1010.6
20260507003645 46 303 0.0 1.0 0.00 0.74 0.01 93 1010.6
20260507003145 46 303 0.0 1.0 0.00 0.74 0.01 93 1010.7
20260507002645 46 303 0.0 0.0 0.00 0.74 0.01 93 1010.8
20260507002144 46 303 0.0 0.0 0.00 0.74 0.01 93 1010.6
20260507001644 46 303 0.0 1.0 0.00 0.74 0.01 93 1010.7
20260507001144 46 303 0.0 1.0 0.00 0.74 0.01 93 1010.6
20260507000644 46 303 0.0 0.0 0.00 0.74 0.01 93 1010.6
20260507000144 46 303 0.0 1.0 0.00 0.74 0.01 93 1010.6
20260506235643 46 303 0.0 2.0 0.00 0.74 0.01 93 1010.5
20260506235143 46 303 0.0 1.0 0.00 0.74 0.01 93 1010.7
20260506234643 46 303 0.0 0.0 0.00 0.74 0.01 93 1010.6
20260506234143 46 303 0.0 1.0 0.00 0.74 0.01 93 1010.7
20260506233642 46 303 1.0 3.0 0.01 0.74 0.01 93 1010.6
20260506233142 46 301 1.0 3.0 0.01 0.74 0.01 93 1010.6
20260506232642 46 313 0.0 3.0 0.01 0.74 0.01 93 1010.5
20260506232141 46 314 0.0 1.0 0.01 0.74 0.01 93 1010.6
20260506231641 46 303 0.0 1.0 0.01 0.74 0.01 93 1010.5
20260506231141 46 303 0.0 1.0 0.01 0.74 0.01 93 1010.5
20260506230641 46 304 0.0 0.0 0.01 0.74 0.01 93 1010.5
20260506230140 46 111 0.0 0.0 0.01 0.74 0.01 93 1010.5
20260506225640 47 317 0.0 0.0 0.01 0.74 0.01 92 1010.4
20260506225140 47 317 0.0 1.0 0.01 0.74 0.01 92 1010.4
20260506224639 47 317 0.0 0.0 0.01 0.74 0.01 92 1010.4
20260506224139 47 317 0.0 0.0 0.01 0.74 0.01 92 1010.4
20260506223639 47 317 0.0 0.0 0.00 0.73 0.00 92 1010.4
20260506223139 47 317 0.0 0.0 0.01 0.73 0.00 91 1010.4
20260506222638 47 317 0.0 2.0 0.01 0.73 0.00 91 1010.3
20260506222138 47 311 0.0 1.0 0.01 0.73 0.00 91 1010.4
20260506221638 48 311 0.0 0.0 0.02 0.73 0.00 91 1010.4
20260506221138 48 311 0.0 2.0 0.02 0.73 0.00 91 1010.4
20260506220637 48 307 0.0 0.0 0.02 0.73 0.00 91 1010.4
20260506220137 48 307 0.0 0.0 0.02 0.73 0.00 90 1010.3
20260506215637 48 307 0.0 2.0 0.02 0.73 0.73 90 1010.3
20260506215137 48 314 0.0 1.0 0.02 0.73 0.73 91 1010.3
20260506214636 48 314 0.0 1.0 0.03 0.73 0.73 91 1010.2
20260506214136 48 314 0.0 2.0 0.04 0.73 0.73 91 1010.2
20260506213636 48 321 0.0 2.0 0.06 0.73 0.73 92 1010.2
20260506213135 48 305 0.0 0.0 0.06 0.72 0.72 92 1010.1
20260506212635 48 305 0.0 0.0 0.07 0.72 0.72 92 1010.1
20260506212135 48 305 0.0 0.0 0.10 0.72 0.72 92 1010.1
20260506211635 48 305 0.0 0.0 0.10 0.71 0.71 91 1010.0
20260506211134 48 305 0.0 0.0 0.10 0.71 0.71 91 1010.0
20260506210634 48 305 0.0 0.0 0.10 0.71 0.71 91 1010.0
20260506210134 48 305 0.0 0.0 0.10 0.71 0.71 90 1009.9
20260506205634 48 305 0.0 0.0 0.10 0.74 0.71 90 1010.0
20260506205134 49 305 0.0 0.0 0.10 0.74 0.71 89 1009.9
20260506204633 49 305 0.0 4.0 0.09 0.73 0.70 88 1010.0
20260506204133 49 302 0.0 3.0 0.08 0.72 0.69 87 1009.9
20260506203632 49 300 0.0 2.0 0.06 0.70 0.67 87 1010.0
20260506203132 49 290 1.0 2.0 0.05 0.69 0.66 86 1010.0
20260506202632 50 314 1.0 5.0 0.04 0.68 0.65 83 1009.9
20260506202132 51 319 0.0 3.0 0.01 0.65 0.62 80 1009.8
20260506201631 52 302 0.0 4.0 0.00 0.64 0.61 80 1009.8
20260506201131 52 311 0.0 0.0 0.00 0.64 0.61 80 1009.6
20260506200631 52 311 0.0 0.0 0.00 0.64 0.61 79 1009.5
20260506200131 52 311 0.0 0.0 0.00 0.64 0.61 81 1009.4
20260506195630 52 311 0.0 0.0 0.00 0.64 0.61 81 1009.4
20260506195130 52 311 0.0 0.0 0.00 0.64 0.61 81 1009.4
20260506194630 52 311 0.0 0.0 0.00 0.64 0.61 82 1009.4
20260506194130 52 311 0.0 0.0 0.00 0.64 0.61 82 1009.3
20260506193629 52 311 0.0 0.0 0.00 0.64 0.61 83 1009.2
20260506193129 52 311 0.0 0.0 0.00 0.64 0.61 83 1009.1